,,,PA_Meas_PMT16A,,PR_Meas_QMR101_102,,RH_Meas_QMH101,,SR_Meas_QMS101,,TA_Meas_QMH101,,GenWind,,GenWind,
date,time,status,PA,status,PR,status,RH,status,SR,status,TA,status,DirAvg,status,SpdAvg,
2010-07-19, 00:00:04,VALID,1002.77,VALID,0,VALID,87.5872,VALID,0,VALID,26.8952,VALID,103,VALID,0.897266,
2010-07-19, 00:01:04,VALID,1002.78,VALID,0,VALID,87.5414,VALID,0,VALID,26.9188,VALID,97,VALID,0.877344,
2010-07-19, 00:02:04,VALID,1002.74,VALID,0,VALID,87.4804,VALID,0,VALID,26.9362,VALID,92,VALID,0.542578,
2010-07-19, 00:03:04,VALID,1002.74,VALID,0,VALID,87.3659,VALID,0,VALID,26.9557,VALID,91,VALID,0.769531,
2010-07-19, 00:04:04,VALID,1002.71,VALID,0,VALID,87.2744,VALID,0,VALID,27.0142,VALID,97,VALID,1.26719,
2010-07-19, 00:05:04,VALID,1002.71,VALID,0,VALID,86.9006,VALID,0,VALID,27.0921,VALID,115,VALID,0.969141,
2010-07-19, 00:06:04,VALID,1002.66,VALID,0,VALID,86.687,VALID,0,VALID,27.1116,VALID,120,VALID,0.746484,
2010-07-19, 00:07:04,VALID,1002.66,VALID,0,VALID,86.5954,VALID,0,VALID,27.1116,VALID,101,VALID,0.622266,
2010-07-19, 00:08:04,VALID,1002.69,VALID,0,VALID,86.5191,VALID,0,VALID,27.0921,VALID,115,VALID,0.901563,
2010-07-19, 00:09:04,VALID,1002.65,VALID,0,VALID,86.481,VALID,0,VALID,27.1116,VALID,115,VALID,0.724219,
2010-07-19, 00:10:04,VALID,1002.64,VALID,0,VALID,86.4581,VALID,0,VALID,27.0921,VALID,99,VALID,0.332031,
2010-07-19, 00:11:04,VALID,1002.65,VALID,0,VALID,86.4352,VALID,0,VALID,27.1116,VALID,92,VALID,0.429297,
2010-07-19, 00:12:04,VALID,1002.66,VALID,0,VALID,86.3894,VALID,0,VALID,27.1116,VALID,103,VALID,0.823438,
2010-07-19, 00:13:04,VALID,1002.65,VALID,0,VALID,86.3742,VALID,0,VALID,27.1331,VALID,84,VALID,0.414063,
2010-07-19, 00:14:04,VALID,1002.66,VALID,0,VALID,86.3818,VALID,0,VALID,27.1116,VALID,95,VALID,0.245703,
2010-07-19, 00:15:04,VALID,1002.62,VALID,0,VALID,86.4276,VALID,0,VALID,27.0706,VALID,95,VALID,0.408984,
2010-07-19, 00:16:04,VALID,1002.62,VALID,0,VALID,86.4886,VALID,0,VALID,27.0726,VALID,92,VALID,0.428125,
2010-07-19, 00:17:04,VALID,1002.65,VALID,0,VALID,86.5496,VALID,0,VALID,27.0531,VALID,92,VALID,0.355078,
2010-07-19, 00:18:04,VALID,1002.64,VALID,0,VALID,86.748,VALID,0,VALID,27.0336,VALID,118,VALID,0.8,
2010-07-19, 00:19:04,VALID,1002.67,VALID,0,VALID,86.8777,VALID,0,VALID,26.9947,VALID,122,VALID,0.751953,
2010-07-19, 00:20:04,VALID,1002.65,VALID,0,VALID,86.9692,VALID,0,VALID,27.0142,VALID,129,VALID,0.689453,
2010-07-19, 00:21:04,VALID,1002.61,VALID,0,VALID,87.0684,VALID,0,VALID,26.9752,VALID,129,VALID,0.600391,
2010-07-19, 00:22:04,VALID,1002.63,VALID,0,VALID,87.1676,VALID,0,VALID,26.9557,VALID,128,VALID,0.670313,
2010-07-19, 00:23:04,VALID,1002.64,VALID,0,VALID,87.2439,VALID,0,VALID,26.9167,VALID,122,VALID,0.426953,
2010-07-19, 00:24:04,VALID,1002.58,VALID,0,VALID,87.3278,VALID,0,VALID,26.8778,VALID,83,VALID,0.824609,
2010-07-19, 00:25:04,VALID,1002.55,VALID,0,VALID,87.4193,VALID,0,VALID,26.8973,VALID,101,VALID,0.589453,
2010-07-19, 00:26:04,VALID,1002.57,VALID,0,VALID,87.3812,VALID,0,VALID,26.8973,VALID,94,VALID,0.628516,
2010-07-19, 00:27:04,VALID,1002.55,VALID,0,VALID,87.3125,VALID,0,VALID,26.8778,VALID,93,VALID,0.339453,
2010-07-19, 00:28:04,VALID,1002.56,VALID,0,VALID,87.3583,VALID,0,VALID,26.8583,VALID,93,VALID,0.355859,
2010-07-19, 00:29:04,VALID,1002.55,VALID,0,VALID,87.5567,VALID,0,VALID,26.8193,VALID,86,VALID,0.7375,
2010-07-19, 00:30:04,VALID,1002.56,VALID,0,VALID,87.7016,VALID,0,VALID,26.8193,VALID,76,VALID,0.442969,
2010-07-19, 00:31:04,VALID,1002.56,VALID,0,VALID,87.6177,VALID,0,VALID,26.8193,VALID,76,VALID,0.276953,
2010-07-19, 00:32:04,VALID,1002.53,VALID,0,VALID,87.6558,VALID,0,VALID,26.7998,VALID,76,VALID,0.578125,
2010-07-19, 00:33:04,VALID,1002.56,VALID,0,VALID,87.7703,VALID,0,VALID,26.7804,VALID,90,VALID,0.545703,
2010-07-19, 00:34:04,VALID,1002.53,VALID,0,VALID,87.9152,VALID,0,VALID,26.7609,VALID,84,VALID,0.239844,
2010-07-19, 00:35:04,VALID,1002.53,VALID,0,VALID,87.9534,VALID,0,VALID,26.7609,VALID,69,VALID,0.277734,
2010-07-19, 00:36:04,VALID,1002.49,VALID,0,VALID,88.0907,VALID,0,VALID,26.7414,VALID,125,VALID,0.63125,
2010-07-19, 00:37:04,VALID,1002.48,VALID,0,VALID,88.1517,VALID,0,VALID,26.7414,VALID,98,VALID,0.3875,
2010-07-19, 00:38:04,VALID,1002.48,VALID,0,VALID,88.2661,VALID,0,VALID,26.7414,VALID,98,VALID,0.739453,
2010-07-19, 00:39:04,VALID,1002.43,VALID,0,VALID,88.2509,VALID,0,VALID,26.7804,VALID,99,VALID,0.482031,
2010-07-19, 00:40:04,VALID,1002.43,VALID,0,VALID,88.1212,VALID,0,VALID,26.7998,VALID,99,VALID,0.499219,
2010-07-19, 00:41:04,VALID,1002.43,VALID,0,VALID,87.9534,VALID,0,VALID,26.8019,VALID,99,VALID,0.407031,
2010-07-19, 00:42:04,VALID,1002.39,VALID,0,VALID,88.0907,VALID,0,VALID,26.7804,VALID,117,VALID,1.11523,
2010-07-19, 00:43:04,VALID,1002.37,VALID,0,VALID,87.9381,VALID,0,VALID,26.7998,VALID,99,VALID,0.450781,
2010-07-19, 00:44:04,VALID,1002.36,VALID,0,VALID,87.7626,VALID,0,VALID,26.7783,VALID,99,VALID,0.658203,
2010-07-19, 00:45:04,VALID,1002.36,VALID,0,VALID,87.8847,VALID,0,VALID,26.7804,VALID,100,VALID,0.376953,
2010-07-19, 00:46:04,VALID,1002.35,VALID,0,VALID,88.1136,VALID,0,VALID,26.7414,VALID,93,VALID,0.754687,
2010-07-19, 00:47:04,VALID,1002.35,VALID,0,VALID,88.0983,VALID,0,VALID,26.7024,VALID,83,VALID,0.419141,
2010-07-19, 00:48:04,VALID,1002.36,VALID,0,VALID,88.3119,VALID,0,VALID,26.6635,VALID,82,VALID,0.369922,
2010-07-19, 00:49:04,VALID,1002.38,VALID,0,VALID,88.0983,VALID,0,VALID,26.5641,VALID,65,VALID,0.274609,
2010-07-19, 00:50:04,VALID,1002.38,VALID,0,VALID,88.8078,VALID,0,VALID,26.5076,VALID,65,VALID,0.417188,
2010-07-19, 00:51:04,VALID,1002.42,VALID,0,VALID,88.9833,VALID,0,VALID,26.4277,VALID,65,VALID,0.394141,
2010-07-19, 00:52:04,VALID,1002.41,VALID,0,VALID,89.1969,VALID,0,VALID,26.3518,VALID,65,VALID,0.298047,
2010-07-19, 00:53:04,VALID,1002.46,VALID,0,VALID,89.8682,VALID,0,VALID,26.2739,VALID,64,VALID,0.507813,
2010-07-19, 00:54:04,VALID,1002.45,VALID,0,VALID,94.0107,VALID,0,VALID,26.157,VALID,48,VALID,0.483594,
2010-07-19, 00:55:04,VALID,1002.47,VALID,0,VALID,99.4119,VALID,0,VALID,26.0381,VALID,46,VALID,0.451953,
2010-07-19, 00:56:04,VALID,1002.49,VALID,0,VALID,102.83,VALID,0,VALID,25.9817,VALID,42,VALID,0.325391,
2010-07-19, 00:57:04,VALID,1002.48,VALID,0,VALID,104,VALID,0,VALID,25.8823,VALID,42,VALID,0.475781,
2010-07-19, 00:58:04,VALID,1002.5,VALID,0,VALID,104,VALID,0,VALID,25.8239,VALID,29,VALID,0.574609,
2010-07-19, 00:59:04,VALID,1002.5,VALID,0,VALID,104,VALID,0,VALID,25.746,VALID,23,VALID,0.576953,
2010-07-19, 01:00:04,VALID,1002.48,VALID,0,VALID,104,VALID,0,VALID,25.7071,VALID,23,VALID,0.427734,
2010-07-19, 01:01:04,VALID,1002.48,VALID,0,VALID,104,VALID,0,VALID,25.6876,VALID,23,VALID,0.335156,
2010-07-19, 01:02:04,VALID,1002.44,VALID,0,VALID,104,VALID,0.100563,VALID,25.6681,VALID,19,VALID,0.667578,
2010-07-19, 01:03:04,VALID,1002.5,VALID,0,VALID,104,VALID,0,VALID,25.7071,VALID,18,VALID,0.598437,
2010-07-19, 01:04:04,VALID,1002.48,VALID,0,VALID,104,VALID,0.100563,VALID,25.7285,VALID,18,VALID,0.342187,
2010-07-19, 01:05:04,VALID,1002.46,VALID,0,VALID,104,VALID,0.100563,VALID,25.709,VALID,18,VALID,0.454688,
2010-07-19, 01:06:04,VALID,1002.45,VALID,0,VALID,104,VALID,0.100563,VALID,25.7071,VALID,18,VALID,0.192969,
2010-07-19, 01:07:04,VALID,1002.44,VALID,0,VALID,104,VALID,0,VALID,25.6876,VALID,18,VALID,0.368359,
2010-07-19, 01:08:04,VALID,1002.43,VALID,0,VALID,104,VALID,0,VALID,25.6895,VALID,18,VALID,0.424609,
2010-07-19, 01:09:04,VALID,1002.4,VALID,0,VALID,104,VALID,0,VALID,25.6876,VALID,18,VALID,0.492188,
2010-07-19, 01:10:04,VALID,1002.4,VALID,0,VALID,104,VALID,0,VALID,25.6681,VALID,18,VALID,0.424609,
2010-07-19, 01:11:04,VALID,1002.39,VALID,0,VALID,104,VALID,0,VALID,25.6895,VALID,18,VALID,0.482812,
2010-07-19, 01:12:04,VALID,1002.37,VALID,0,VALID,104,VALID,0,VALID,25.6486,VALID,18,VALID,0.526172,
2010-07-19, 01:13:04,VALID,1002.34,VALID,0,VALID,104,VALID,0,VALID,25.7285,VALID,18,VALID,0.441406,
2010-07-19, 01:14:04,VALID,1002.3,VALID,0,VALID,104,VALID,0,VALID,25.7674,VALID,18,VALID,0.507813,
2010-07-19, 01:15:04,VALID,1002.32,VALID,0,VALID,104,VALID,0,VALID,25.8259,VALID,18,VALID,0.512891,
2010-07-19, 01:16:04,VALID,1002.26,VALID,0,VALID,104,VALID,0,VALID,25.8648,VALID,18,VALID,0.249609,
2010-07-19, 01:17:04,VALID,1002.26,VALID,0,VALID,104,VALID,0,VALID,25.8434,VALID,18,VALID,0.325,
2010-07-19, 01:18:04,VALID,1002.28,VALID,0,VALID,104,VALID,0,VALID,25.8434,VALID,18,VALID,0.505469,
2010-07-19, 01:19:04,VALID,1002.3,VALID,0,VALID,104,VALID,0,VALID,25.8648,VALID,18,VALID,0.533984,
2010-07-19, 01:20:04,VALID,1002.33,VALID,0,VALID,104,VALID,0.100563,VALID,25.8239,VALID,18,VALID,0.546094,
2010-07-19, 01:21:04,VALID,1002.34,VALID,0,VALID,104,VALID,0,VALID,25.785,VALID,18,VALID,0.584766,
2010-07-19, 01:22:04,VALID,1002.35,VALID,0,VALID,104,VALID,0,VALID,25.748,VALID,18,VALID,0.526172,
2010-07-19, 01:23:04,VALID,1002.37,VALID,0,VALID,104,VALID,0.100563,VALID,25.6876,VALID,18,VALID,0.467578,
2010-07-19, 01:24:04,VALID,1002.33,VALID,0,VALID,104,VALID,0,VALID,25.6486,VALID,18,VALID,0.278125,
2010-07-19, 01:25:04,VALID,1002.34,VALID,0,VALID,104,VALID,0,VALID,25.6311,VALID,18,VALID,0.346875,
2010-07-19, 01:26:04,VALID,1002.29,VALID,0,VALID,104,VALID,0,VALID,25.6097,VALID,18,VALID,0.329688,
2010-07-19, 01:27:04,VALID,1002.28,VALID,0,VALID,104,VALID,0.100563,VALID,25.6292,VALID,18,VALID,0.371875,
2010-07-19, 01:28:04,VALID,1002.25,VALID,0,VALID,104,VALID,0.100563,VALID,25.6292,VALID,18,VALID,0.0316406,
2010-07-19, 01:29:04,VALID,1002.24,VALID,0,VALID,104,VALID,0,VALID,25.6486,VALID,18,VALID,0.288281,
2010-07-19, 01:30:04,VALID,1002.25,VALID,0,VALID,104,VALID,0.100563,VALID,25.6292,VALID,18,VALID,0.357812,
2010-07-19, 01:31:04,VALID,1002.32,VALID,0,VALID,104,VALID,0,VALID,25.6116,VALID,18,VALID,0.605469,
2010-07-19, 01:32:04,VALID,1002.38,VALID,0,VALID,104,VALID,0.100563,VALID,25.5513,VALID,18,VALID,0.439063,
2010-07-19, 01:33:04,VALID,1002.42,VALID,0,VALID,104,VALID,0,VALID,25.5318,VALID,18,VALID,0.435547,
2010-07-19, 01:34:04,VALID,1002.45,VALID,0,VALID,104,VALID,0.100563,VALID,25.4928,VALID,18,VALID,0.376172,
2010-07-19, 01:35:04,VALID,1002.49,VALID,0,VALID,104,VALID,0,VALID,25.4948,VALID,18,VALID,0.376953,
2010-07-19, 01:36:04,VALID,1002.53,VALID,0,VALID,104,VALID,0,VALID,25.4344,VALID,18,VALID,0.251953,
2010-07-19, 01:37:04,VALID,1002.52,VALID,0,VALID,104,VALID,0,VALID,25.4149,VALID,18,VALID,0.433203,
2010-07-19, 01:38:04,VALID,1002.51,VALID,0,VALID,104,VALID,0,VALID,25.4558,VALID,18,VALID,0.289844,
2010-07-19, 01:39:04,VALID,1002.48,VALID,0,VALID,104,VALID,0,VALID,25.4539,VALID,18,VALID,0.301953,
2010-07-19, 01:40:04,VALID,1002.44,VALID,0,VALID,104,VALID,0,VALID,25.452,VALID,18,VALID,0,
2010-07-19, 01:41:04,VALID,1002.39,VALID,0,VALID,104,VALID,0,VALID,25.5123,VALID,18,VALID,0,
2010-07-19, 01:42:04,VALID,1002.34,VALID,0,VALID,104,VALID,0.100563,VALID,25.5318,VALID,18,VALID,0,
2010-07-19, 01:43:04,VALID,1002.3,VALID,0,VALID,104,VALID,0.100563,VALID,25.5902,VALID,18,VALID,0,
2010-07-19, 01:44:04,VALID,1002.21,VALID,0,VALID,104,VALID,0,VALID,25.6311,VALID,18,VALID,0,
2010-07-19, 01:45:04,VALID,1002.18,VALID,0,VALID,104,VALID,0,VALID,25.6486,VALID,18,VALID,0,
2010-07-19, 01:46:04,VALID,1002.15,VALID,0,VALID,104,VALID,0,VALID,25.672,VALID,18,VALID,0,
2010-07-19, 01:47:04,VALID,1002.18,VALID,0,VALID,104,VALID,0,VALID,25.6486,VALID,18,VALID,0,
2010-07-19, 01:48:04,VALID,1002.22,VALID,0,VALID,104,VALID,0,VALID,25.67,VALID,18,VALID,0,
2010-07-19, 01:49:04,VALID,1002.24,VALID,0,VALID,104,VALID,0,VALID,25.67,VALID,18,VALID,0,
2010-07-19, 01:50:04,VALID,1002.31,VALID,0,VALID,104,VALID,0,VALID,25.6525,VALID,20,VALID,0.563672,
2010-07-19, 01:51:04,VALID,1002.37,VALID,0,VALID,104,VALID,0,VALID,25.5902,VALID,22,VALID,0.389062,
2010-07-19, 01:52:04,VALID,1002.39,VALID,0,VALID,104,VALID,0,VALID,25.6136,VALID,22,VALID,0.208203,
2010-07-19, 01:53:04,VALID,1002.42,VALID,0,VALID,104,VALID,0,VALID,25.5532,VALID,22,VALID,0.334766,
2010-07-19, 01:54:04,VALID,1002.44,VALID,0,VALID,104,VALID,0,VALID,25.5532,VALID,22,VALID,0.288281,
2010-07-19, 01:55:04,VALID,1002.44,VALID,0,VALID,104,VALID,0,VALID,25.5532,VALID,22,VALID,0.355859,
2010-07-19, 01:56:04,VALID,1002.46,VALID,0,VALID,104,VALID,0,VALID,25.5337,VALID,22,VALID,0.343359,
2010-07-19, 01:57:04,VALID,1002.44,VALID,0,VALID,104,VALID,0,VALID,25.5337,VALID,22,VALID,0.282813,
2010-07-19, 01:58:04,VALID,1002.44,VALID,0,VALID,104,VALID,0,VALID,25.5532,VALID,22,VALID,0,
2010-07-19, 01:59:04,VALID,1002.42,VALID,0,VALID,104,VALID,0,VALID,25.5532,VALID,22,VALID,0.00507812,
2010-07-19, 02:00:04,VALID,1002.4,VALID,0,VALID,104,VALID,0,VALID,25.5727,VALID,22,VALID,0.315625,
2010-07-19, 02:01:04,VALID,1002.38,VALID,0,VALID,104,VALID,0.100563,VALID,25.6097,VALID,22,VALID,0.185547,
2010-07-19, 02:02:04,VALID,1002.3,VALID,0,VALID,104,VALID,0.100563,VALID,25.6292,VALID,358,VALID,0.310547,
2010-07-19, 02:03:04,VALID,1002.29,VALID,0,VALID,104,VALID,0,VALID,25.6681,VALID,358,VALID,0.214844,
2010-07-19, 02:04:04,VALID,1002.25,VALID,0,VALID,104,VALID,0.100563,VALID,25.6681,VALID,358,VALID,0.523828,
2010-07-19, 02:05:04,VALID,1002.21,VALID,0,VALID,104,VALID,0,VALID,25.7285,VALID,358,VALID,0.605859,
2010-07-19, 02:06:04,VALID,1002.25,VALID,0,VALID,104,VALID,0,VALID,25.746,VALID,1,VALID,0.690625,
2010-07-19, 02:07:04,VALID,1002.24,VALID,0,VALID,104,VALID,0,VALID,25.785,VALID,8,VALID,0.538281,
2010-07-19, 02:08:04,VALID,1002.24,VALID,0,VALID,104,VALID,0.100563,VALID,25.8044,VALID,8,VALID,0.516406,
2010-07-19, 02:09:04,VALID,1002.29,VALID,0,VALID,104,VALID,0.100563,VALID,25.8239,VALID,8,VALID,0.224219,
2010-07-19, 02:10:04,VALID,1002.31,VALID,0,VALID,104,VALID,0.100563,VALID,25.8025,VALID,8,VALID,0.0304688,
2010-07-19, 02:11:04,VALID,1002.36,VALID,0,VALID,104,VALID,0.100563,VALID,25.8044,VALID,8,VALID,0.0625,
2010-07-19, 02:12:04,VALID,1002.4,VALID,0,VALID,104,VALID,0.100563,VALID,25.8044,VALID,8,VALID,0.276172,
2010-07-19, 02:13:04,VALID,1002.43,VALID,0,VALID,104,VALID,0.100563,VALID,25.785,VALID,8,VALID,0.0078125,
2010-07-19, 02:14:04,VALID,1002.42,VALID,0,VALID,104,VALID,0.100563,VALID,25.785,VALID,42,VALID,0.479688,
2010-07-19, 02:15:04,VALID,1002.43,VALID,0,VALID,104,VALID,0.100563,VALID,25.785,VALID,60,VALID,0.393359,
2010-07-19, 02:16:04,VALID,1002.41,VALID,0,VALID,104,VALID,0,VALID,25.746,VALID,70,VALID,0.216797,
2010-07-19, 02:17:04,VALID,1002.4,VALID,0,VALID,104,VALID,0,VALID,25.7869,VALID,70,VALID,0.299219,
2010-07-19, 02:18:04,VALID,1002.35,VALID,0,VALID,104,VALID,0,VALID,25.8064,VALID,70,VALID,0.49375,
2010-07-19, 02:19:04,VALID,1002.34,VALID,0,VALID,104,VALID,0,VALID,25.8064,VALID,70,VALID,0.200781,
2010-07-19, 02:20:04,VALID,1002.3,VALID,0,VALID,104,VALID,0,VALID,25.7869,VALID,70,VALID,0.0148437,
2010-07-19, 02:21:04,VALID,1002.23,VALID,0,VALID,104,VALID,0,VALID,25.8064,VALID,70,VALID,0.355078,
2010-07-19, 02:22:04,VALID,1002.22,VALID,0,VALID,104,VALID,0,VALID,25.8453,VALID,70,VALID,0.144141,
2010-07-19, 02:23:04,VALID,1002.17,VALID,0,VALID,104,VALID,0,VALID,25.8434,VALID,70,VALID,0.00429688,
2010-07-19, 02:24:04,VALID,1002.17,VALID,0,VALID,104,VALID,0,VALID,25.8843,VALID,70,VALID,0,
2010-07-19, 02:25:04,VALID,1002.13,VALID,0,VALID,104,VALID,0,VALID,25.8843,VALID,65,VALID,0,
2010-07-19, 02:26:04,VALID,1002.13,VALID,0,VALID,104,VALID,0,VALID,25.8843,VALID,57,VALID,0.502734,
2010-07-19, 02:27:04,VALID,1002.11,VALID,0,VALID,104,VALID,0,VALID,25.8843,VALID,35,VALID,0.483984,
2010-07-19, 02:28:04,VALID,1002.06,VALID,0,VALID,104,VALID,0,VALID,25.8823,VALID,21,VALID,0.531641,
2010-07-19, 02:29:04,VALID,1002.02,VALID,0,VALID,104,VALID,0,VALID,25.8843,VALID,17,VALID,0.479297,
2010-07-19, 02:30:04,VALID,1002.01,VALID,0,VALID,104,VALID,0,VALID,25.8823,VALID,4,VALID,0.489062,
2010-07-19, 02:31:04,VALID,1002.02,VALID,0,VALID,104,VALID,0,VALID,25.9038,VALID,4,VALID,0.551562,
2010-07-19, 02:32:04,VALID,1002,VALID,0,VALID,104,VALID,0,VALID,25.9038,VALID,4,VALID,0.433594,
2010-07-19, 02:33:04,VALID,1001.99,VALID,0,VALID,104,VALID,0,VALID,25.9038,VALID,4,VALID,0.391016,
2010-07-19, 02:34:04,VALID,1001.99,VALID,0,VALID,104,VALID,0,VALID,25.8843,VALID,4,VALID,0.3,
2010-07-19, 02:35:04,VALID,1001.98,VALID,0,VALID,104,VALID,0,VALID,25.8843,VALID,4,VALID,0.330859,
2010-07-19, 02:36:04,VALID,1001.96,VALID,0,VALID,104,VALID,0,VALID,25.8629,VALID,4,VALID,0.451562,
2010-07-19, 02:37:04,VALID,1001.96,VALID,0,VALID,104,VALID,0,VALID,25.8648,VALID,4,VALID,0.385547,
2010-07-19, 02:38:04,VALID,1001.97,VALID,0,VALID,104,VALID,0,VALID,25.8648,VALID,4,VALID,0.704297,
2010-07-19, 02:39:04,VALID,1001.99,VALID,0,VALID,104,VALID,0,VALID,25.8648,VALID,2,VALID,0.764453,
2010-07-19, 02:40:04,VALID,1002,VALID,0,VALID,104,VALID,0,VALID,25.8843,VALID,358,VALID,0.756641,
2010-07-19, 02:41:04,VALID,1002.03,VALID,0,VALID,104,VALID,0,VALID,25.9018,VALID,358,VALID,0.557813,
2010-07-19, 02:42:04,VALID,1002.09,VALID,0,VALID,104,VALID,0,VALID,25.9427,VALID,358,VALID,0.416016,
2010-07-19, 02:43:04,VALID,1002.08,VALID,0,VALID,104,VALID,0,VALID,25.9427,VALID,358,VALID,0.544141,
2010-07-19, 02:44:04,VALID,1002.11,VALID,0,VALID,104,VALID,0,VALID,25.9817,VALID,9,VALID,0.377734,
2010-07-19, 02:45:04,VALID,1002.19,VALID,0,VALID,104,VALID,0,VALID,26.0012,VALID,9,VALID,0.442969,
2010-07-19, 02:46:04,VALID,1002.2,VALID,0,VALID,104,VALID,0.100563,VALID,26.0401,VALID,9,VALID,0.484375,
2010-07-19, 02:47:04,VALID,1002.21,VALID,0,VALID,104,VALID,0.100563,VALID,26.0596,VALID,9,VALID,0.493359,
2010-07-19, 02:48:04,VALID,1002.26,VALID,0,VALID,104,VALID,0,VALID,26.0596,VALID,9,VALID,0.567969,
2010-07-19, 02:49:04,VALID,1002.31,VALID,0,VALID,104,VALID,0.100563,VALID,26.0362,VALID,34,VALID,0.519531,
2010-07-19, 02:50:04,VALID,1002.29,VALID,0,VALID,104,VALID,0,VALID,26.0966,VALID,113,VALID,3.04258,
2010-07-19, 02:51:04,VALID,1002.33,VALID,0,VALID,104,VALID,0,VALID,26.2719,VALID,16,VALID,2.01211,
2010-07-19, 02:52:04,VALID,1002.3,VALID,0,VALID,104,VALID,0,VALID,26.3713,VALID,19,VALID,2.00508,
2010-07-19, 02:53:04,VALID,1002.35,VALID,0,VALID,104,VALID,0.100563,VALID,26.3887,VALID,21,VALID,1.46016,
2010-07-19, 02:54:04,VALID,1002.33,VALID,0,VALID,104,VALID,0.100563,VALID,26.4277,VALID,19,VALID,1.2125,
2010-07-19, 02:55:04,VALID,1002.34,VALID,0,VALID,104,VALID,0.100563,VALID,26.4277,VALID,345,VALID,1.48398,
2010-07-19, 02:56:04,VALID,1002.36,VALID,0,VALID,104,VALID,0.100563,VALID,26.4472,VALID,12,VALID,0.583203,
2010-07-19, 02:57:04,VALID,1002.37,VALID,0,VALID,104,VALID,0.100563,VALID,26.4472,VALID,64,VALID,0.673437,
2010-07-19, 02:58:04,VALID,1002.4,VALID,0,VALID,104,VALID,0.100563,VALID,26.4472,VALID,25,VALID,0.633984,
2010-07-19, 02:59:04,VALID,1002.42,VALID,0,VALID,104,VALID,0.100563,VALID,26.4277,VALID,32,VALID,0.423047,
2010-07-19, 03:00:04,VALID,1002.43,VALID,0,VALID,104,VALID,0.100563,VALID,26.3887,VALID,66,VALID,0.677734,
2010-07-19, 03:01:04,VALID,1002.42,VALID,0,VALID,104,VALID,0.100563,VALID,26.3693,VALID,50,VALID,0.477344,
2010-07-19, 03:02:04,VALID,1002.42,VALID,0,VALID,104,VALID,0.100563,VALID,26.3713,VALID,24,VALID,1.20977,
2010-07-19, 03:03:04,VALID,1002.42,VALID,0,VALID,104,VALID,0.100563,VALID,26.3303,VALID,28,VALID,0.992188,
2010-07-19, 03:04:04,VALID,1002.4,VALID,0,VALID,104,VALID,0.100563,VALID,26.2913,VALID,28,VALID,1.5582,
2010-07-19, 03:05:04,VALID,1002.39,VALID,0,VALID,104,VALID,0.100563,VALID,26.2719,VALID,57,VALID,1.23438,
2010-07-19, 03:06:04,VALID,1002.39,VALID,0,VALID,104,VALID,0.100563,VALID,26.2524,VALID,39,VALID,0.988672,
2010-07-19, 03:07:04,VALID,1002.39,VALID,0,VALID,104,VALID,0,VALID,26.194,VALID,27,VALID,1.65234,
2010-07-19, 03:08:04,VALID,1002.36,VALID,0,VALID,101.937,VALID,0,VALID,26.1355,VALID,358,VALID,2.5082,
2010-07-19, 03:09:04,VALID,1002.37,VALID,0,VALID,103.196,VALID,0.100563,VALID,26.0771,VALID,24,VALID,2.68828,
2010-07-19, 03:10:04,VALID,1002.38,VALID,0,VALID,104,VALID,0.100563,VALID,26.0381,VALID,21,VALID,2.2375,
2010-07-19, 03:11:04,VALID,1002.33,VALID,0,VALID,104,VALID,0.100563,VALID,25.9797,VALID,33,VALID,0.602734,
2010-07-19, 03:12:04,VALID,1002.35,VALID,0,VALID,104,VALID,0,VALID,25.9193,VALID,16,VALID,1.90195,
2010-07-19, 03:13:04,VALID,1002.27,VALID,0,VALID,104,VALID,0.100563,VALID,25.9232,VALID,9,VALID,2.86641,
2010-07-19, 03:14:04,VALID,1002.21,VALID,0,VALID,101.617,VALID,0.100563,VALID,25.8823,VALID,18,VALID,1.925,
2010-07-19, 03:15:04,VALID,1002.19,VALID,0,VALID,103.043,VALID,0.100563,VALID,25.9038,VALID,25,VALID,0.998438,
2010-07-19, 03:16:04,VALID,1002.19,VALID,0,VALID,100.289,VALID,0.100563,VALID,25.8629,VALID,1,VALID,1.12109,
2010-07-19, 03:17:04,VALID,1002.2,VALID,0,VALID,98.9924,VALID,0.100563,VALID,25.8434,VALID,29,VALID,1.88281,
2010-07-19, 03:18:04,VALID,1002.23,VALID,0,VALID,93.1868,VALID,0.100563,VALID,25.8648,VALID,29,VALID,1.26406,
2010-07-19, 03:19:04,VALID,1002.26,VALID,0,VALID,92.5002,VALID,0.100563,VALID,25.8434,VALID,38,VALID,1.55078,
2010-07-19, 03:20:04,VALID,1002.28,VALID,0,VALID,92.4544,VALID,0.100563,VALID,25.8629,VALID,5,VALID,1.17813,
2010-07-19, 03:21:04,VALID,1002.26,VALID,0,VALID,92.0348,VALID,0.100563,VALID,25.8414,VALID,24,VALID,0.429688,
2010-07-19, 03:22:04,VALID,1002.26,VALID,0,VALID,91.9051,VALID,0,VALID,25.8648,VALID,49,VALID,1.39531,
2010-07-19, 03:23:04,VALID,1002.2,VALID,0,VALID,91.3864,VALID,0.100563,VALID,25.8434,VALID,82,VALID,0.921875,
2010-07-19, 03:24:04,VALID,1002.18,VALID,0,VALID,91.3177,VALID,0,VALID,25.8453,VALID,52,VALID,0.354297,
2010-07-19, 03:25:04,VALID,1002.2,VALID,0,VALID,91.6991,VALID,0.100563,VALID,25.8453,VALID,16,VALID,0.895312,
2010-07-19, 03:26:04,VALID,1002.21,VALID,0,VALID,92.0653,VALID,0,VALID,25.8259,VALID,15,VALID,1.22187,
2010-07-19, 03:27:04,VALID,1002.28,VALID,0,VALID,92.7138,VALID,0,VALID,25.8044,VALID,56,VALID,0.675391,
2010-07-19, 03:28:04,VALID,1002.28,VALID,0,VALID,93.9115,VALID,0,VALID,25.785,VALID,45,VALID,0.634375,
2010-07-19, 03:29:04,VALID,1002.27,VALID,0,VALID,95.4602,VALID,0.100563,VALID,25.785,VALID,359,VALID,1.49648,
2010-07-19, 03:30:04,VALID,1002.25,VALID,0,VALID,95.628,VALID,0.100563,VALID,25.7869,VALID,52,VALID,0.589063,
2010-07-19, 03:31:04,VALID,1002.22,VALID,0,VALID,95.7501,VALID,0,VALID,25.7655,VALID,65,VALID,0.854297,
2010-07-19, 03:32:04,VALID,1002.18,VALID,0,VALID,97.0394,VALID,0,VALID,25.746,VALID,43,VALID,0.969141,
2010-07-19, 03:33:04,VALID,1002.22,VALID,0,VALID,96.2383,VALID,0.100563,VALID,25.7265,VALID,19,VALID,2.1418,
2010-07-19, 03:34:04,VALID,1002.16,VALID,0,VALID,94.949,VALID,0.100563,VALID,25.7674,VALID,35,VALID,1.30742,
2010-07-19, 03:35:04,VALID,1002.21,VALID,0,VALID,94.7965,VALID,0,VALID,25.7674,VALID,30,VALID,0.576953,
2010-07-19, 03:36:05,VALID,1002.19,VALID,0,VALID,93.4538,VALID,0.100563,VALID,25.7674,VALID,6,VALID,2.28281,
2010-07-19, 03:37:05,VALID,1002.17,VALID,0,VALID,93.1563,VALID,0,VALID,25.7674,VALID,21,VALID,0.861328,
2010-07-19, 03:38:05,VALID,1002.22,VALID,0,VALID,92.6909,VALID,0,VALID,25.7655,VALID,28,VALID,1.99766,
2010-07-19, 03:39:05,VALID,1002.14,VALID,0,VALID,92.1187,VALID,0.100563,VALID,25.7246,VALID,35,VALID,1.11523,
2010-07-19, 03:40:05,VALID,1002.11,VALID,0,VALID,91.455,VALID,0,VALID,25.746,VALID,44,VALID,0.892969,
2010-07-19, 03:41:05,VALID,1002.02,VALID,0,VALID,90.8981,VALID,0,VALID,25.7869,VALID,38,VALID,2.46055,
2010-07-19, 03:42:05,VALID,1001.98,VALID,0,VALID,90.86,VALID,0,VALID,25.7655,VALID,63,VALID,1.01445,
2010-07-19, 03:43:05,VALID,1001.96,VALID,0,VALID,91.0354,VALID,0,VALID,25.7674,VALID,87,VALID,1.78281,
2010-07-19, 03:44:05,VALID,1001.96,VALID,0,VALID,91.1499,VALID,0,VALID,25.746,VALID,17,VALID,1.80195,
2010-07-19, 03:45:05,VALID,1001.99,VALID,0,VALID,90.8066,VALID,0.100563,VALID,25.7655,VALID,33,VALID,0.902734,
2010-07-19, 03:46:05,VALID,1002.01,VALID,0,VALID,90.6082,VALID,0.100563,VALID,25.7674,VALID,32,VALID,2.36055,
2010-07-19, 03:47:05,VALID,1002.01,VALID,0,VALID,90.8523,VALID,0.100563,VALID,25.7246,VALID,84,VALID,1.6168,
2010-07-19, 03:48:05,VALID,1002.06,VALID,0,VALID,90.6921,VALID,0,VALID,25.7655,VALID,12,VALID,1.38516,